Regional Weather Roundup
Issued by NWS Wakefield, VA

Home | Current Version | Previous Version | Graphics & Text | Print | Product List | Glossary On
Versions: 1 2 3 4 5 6 7 8 9 10 11 12 13 14 15 16 17 18 19 20 21 22 23 24 25 26 27 28 29 30 31 32 33 34 35 36 37 38 39 40 41 42 43 44 45 46 47 48 49 50
000
ASUS41 KAKQ 010113
RWRAKQ

REGIONAL WEATHER ROUNDUP
NATIONAL WEATHER SERVICE WAKEFIELD VA
900 PM EDT MON AUG 31 2015

Note: "fair" indicates few or no clouds below 12,000 feet with no
significant weather and/or obstructions to visibility. * = Denotes
station may not report precipitation (e.g., rain,snow,etc.),
thunder or fog.

VAZ042-051-052>054-056-010200-
NORTHERN VIRGINIA

CITY           SKY/WX    TMP DP  RH WIND       PRES   REMARKS
WASH NATIONAL  FAIR      80  67  64 S7        30.05R
DULLES         MOCLDY    78  66  66 S5        30.05R
FORT BELVOIR   FAIR      72  68  86 CALM      30.05R
QUANTICO       FAIR      80  68  66 S7        30.05R
FREDERICKSBRG* FAIR      79  70  74 S7        30.05R
STAFFORD*      FAIR      70  66  87 CALM      30.10R
WARRENTON      FAIR      72  67  87 CALM      30.05S
CULPEPER*      FAIR      71  68  88 CALM      30.06S
MANASSAS*      CLEAR     73  70  88 CALM      30.05R
LEESBURG*      FAIR      81  72  74 S12       30.06R
WINCHESTER     FAIR      73  63  68 CALM      30.06S
FRONT ROYAL*   FAIR      73  64  73 CALM      30.06R
LURAY*         CLOUDY    73  61  64 CALM      30.07S
$$

VAZ048-049-060>072-079>083-010200-
CENTRAL AND SOUTH CENTRAL VIRGINIA

CITY           SKY/WX    TMP DP  RH WIND       PRES   REMARKS
RICHMOND       FAIR      74  69  85 S3        30.08R
CHESTERFIELD*  FAIR      73  61  64 S6        30.09R
PETERSBURG*    CLOUDY    73  73 100 S5        30.09R
HANOVER        FAIR      74  69  85 SE3       30.09R
TAPPAHANNOCK*  FAIR      74  66  75 CALM      30.08S
QUINTON*       FAIR      73  70  91 S6        30.08R
CHARLOTTSVILLE FAIR      77  64  64 CALM      30.07R
GORDONSVILLE*  FAIR      71  67  88 CALM      30.06R
ORANGE*        FAIR      72  66  83 CALM      30.08R
LOUISA*        FAIR      75  70  83 S5        30.06S
BUMPASS*       FAIR      75  69  83 S5        30.07R
FARMVILLE*     FAIR      74  69  85 CALM      30.06S
CREWE*         FAIR     N/A N/A N/A CALM      30.08R
FORT PICKETT*  CLOUDY    71  71  98 SE7       30.08S
CHASE CITY*    FAIR      74  74 100 CALM      30.08S
CLARKSVILLE*   FAIR      70  70 100 CALM      30.07S
SOUTH HILL*    CLOUDY    71  71  99 CALM      30.14R
LAWRENCEVILLE* CLOUDY    72  72 100 CALM      30.08S
EMPORIA*       DRIZZLE   70  70 100 CALM      30.10S
$$

VAZ088>098-010200-
SOUTHEAST VIRGINIA

CITY           SKY/WX    TMP DP  RH WIND       PRES   REMARKS
NORFOLK        CLOUDY    74  68  81 S6        30.08R
VIRGINIA BEACH MOCLDY    76  69  79 CALM      30.08R
NORFOLK NAVAL  MOCLDY    75  69  81 CALM      30.09S
WEST POINT*    CLOUDY    76  70  82 S5        30.09S
SALUDA*        FAIR      73  69  88 SE6       30.07R
NEWPORT NEWS   CLOUDY    74  68  81 SW5       30.08S
LANGLEY AFB    CLOUDY    75  68  79 S3        30.07S
FORT EUSTIS    MOCLDY    73  73 100 S3        30.06S
WILLIAMSBURG*  FAIR      75  72  88 S3        30.09R
HR EXEC AP*      N/A     73  70  88 CALM      30.10R
FRANKLIN*      CLOUDY    71  70  98 CALM      30.08S
WAKEFIELD      CLOUDY    73  69  87 VRB3      30.08S
$$

VAZ020-022-025-037-045-010200-
WEST CENTRAL AND SOUTHWEST VIRGINIA

CITY           SKY/WX    TMP DP  RH WIND       PRES   REMARKS
STAUNTON*      FAIR      74  64  70 CALM      30.11S
WAYNESBORO*    MOCLDY    76  65  67 S3        30.11S
HOT SPRINGS VA MOCLDY    68  61  77 CALM      30.23R
LYNCHBURG      FAIR      72  68  87 CALM      30.10R
DANVILLE       FAIR      74  68  81 S3        30.08R
SOUTH BOSTON*  FAIR      71  69  93 CALM      30.08R
MARTINSVILLE   FAIR      71  71 100 CALM      30.12R
ROANOKE        FAIR      78  63  59 CALM      30.12R
BLACKSBURG     FAIR      70  64  81 CALM      30.18R
DUBLIN*        CLOUDY    73  66  77 CALM      30.17R
MARION*        FAIR      70  64  83 CALM      30.20R
HILLSVILLE*    FAIR      72  62  71 CALM      30.18R
RICHLANDS*     FAIR      70  33  25 CALM      30.19S
WISE*          FAIR      70  59  68 N5        30.21R
ABINGDON*      FAIR      71  64  79 CALM      30.16R
$$

MDZ021>025-VAZ099-100-010200-
SOUTHERN MARYLAND AND THE DELMARVA PENINSULA

CITY           SKY/WX    TMP DP  RH WIND       PRES   REMARKS
PATUXENT RIVER CLEAR     76  70  82 S6        30.05S
BAY BRIDGE APT   N/A     77  70  78 S8        30.05R
LEONARDTOWN    NOT AVBL
DOVER          CLEAR     77  68  73 S7        30.02S
GEORGETOWN     NOT AVBL
EASTON         CLEAR     77  72  83 S7        30.09R
CAMBRIDGE      CLEAR     77  70  78 S3        30.05S
SALISBURY      CLEAR     73  68  84 SW6       30.06S
OCEAN CITY     CLEAR     75  67  76 W5        30.06S
WALLOPS ISLAND FAIR      75  66  73 SW7       30.08R
ACCOMACK*      FAIR      70  59  68 S7        30.07S
$$

NCZ012>017-030>032-010200-
NORTH CENTRAL AND EASTERN NORTH CAROLINA

CITY           SKY/WX    TMP DP  RH WIND       PRES   REMARKS
ROANOKE RAPIDS CLOUDY    70  70 100 CALM      30.08S FOG
RALEIGH        FAIR      72  70  93 CALM      30.08R
ELIZABETH CITY MOCLDY    73  71  93 CALM      30.07S
AHOSKIE*       CLOUDY    72  71  96 CALM      30.08R
EDENTON*       CLOUDY    73  72  94 CALM      30.07S
CURRITUCK*     MOCLDY    73  71  93 CALM      30.08S
KILL DEVIL HLS FAIR      73  69  88 CALM      30.07R
MANTEO         FAIR      73  70  92 S3        30.08R
CAPE HATTERAS  FAIR      79  74  84 S15       30.07R
TARBORO*       CLOUDY    74  72  93 CALM      30.08R
GOLDSBORO      MOCLDY    75  74  97 NE5       30.05R
WASHINGTON     RAIN      75  73  93 SE5       30.06S
GREENVILLE     CLOUDY    77  75  94 SE3       30.08S
NEW BERN       CLOUDY    76  73  91 CALM      30.07S
WILMINGTON     LGT RAIN  75  74  96 CALM      30.05R
$$

VAZ048-010200-
ELSEWHERE

CITY           SKY/WX    TMP DP  RH WIND       PRES   REMARKS
HARRISBURG PA  FAIR      80  70  71 CALM      30.02R
BALTIMORE      PTCLDY    79  65  62 S3        30.03R
ANNAPOLIS      CLEAR     79  72  79 S6        30.04R
ANDREWS AFB    FAIR      74  64  69 S6        30.04S
PHILADELPHIA   FAIR      82  67  60 SW10      30.02R
HENDERSON NC   MOCLDY    70  67  92 S5        30.09R
GREENSBORO     CLOUDY    76  68  76 SE5       30.09R
ROCKY MOUNT    CLOUDY    75  73  93 CALM      30.07R
$$

VAZ100-010200-
MARINE

STATION/POSITION TIME  TEMP    WIND        PRES    WAVE   SWELL
                       AIR SEA DIR/SP/G            HT/PER HT/PER
                 (UTC) (F)     (DEG/KT/KT) (MB)    (FT/S) (FT/S)
BRANDYWINE LGT   0000   80 76  230/ 15/ 17 1017.1R
CAPE MAY NJ      0000   79 80  220/  9/ 11 1016.6R
LEWES DE         0000   80 75  240/  6/  9 1017.1R
15NM E FENWICK I 0050   78 78  220/ 16/ 17 1017.6R   3/ 4   2/ 9
OCEAN-CITY-INLET 0000   79 78  240/  6/  8 1017.0R
WACHAPREAGUE VA  0006   76 81  240/  4/  6 1018.4S
THOMAS POINT MD  0000   79 79  180/ 19/ 20 1017.2
GOOSES REEF MD   0100   80 80  210/ 12/ 14 1018.4R
COVE POINT MD    0000   79     200/  9/ 10 1018.1F
SOLOMONS ISLAND  0000      80                N/A
BISHOPS HEAD MD  0000   78 80  190/ 13/ 16 1016.8R
PINEY POINT MD   0005          220/ 10/ 10   N/A
POTOMAC MD       0100   78 80  230/ 12/ 14 1017.1R   2/ 3
CAMBRIDGE MD     0000   77 80  180/  4/  6 1016.8R
LEWISETTA VA     0000   78 80  220/ 11/ 13 1017.4R
RAPPAHANNOCK LGT 0000          220/ 10/ 11 1018.7S
STINGRAY PT      0100   77 80  200/ 10/ 12 1018.7R   1/ 3
YORK RVR RNG VA  0000   76     210/  5/  6 1017.9S
YORKTOWN VA      0000   76 80  190/  4/  5 1018.1S
JAMESTOWN VA     0100   75 81  150/  6/  8   N/A
DOMINION TERM VA 0000   76     190/  4/  5 1018.3S
KIPTOPEKE VA     0000      79  190/  8/ 10   N/A
CHES BAY BRIDGE  0000   76 79  170/  4/  5 1017.9F
CAPE HENRY VA    0000   74     180/  2/  3   N/A
CHESAPEAKE LGHT  0000   75     190/  6/  7 1019.2R
WILLOUBY STN VA  0000   76      10/  3/  6 1019.3S
CAPE HENRY BUOY  0028      78                N/A     2/ 8
1ST LANDING BUOY 0100      78              1018.2R   2/ 5
CAPE CHARLES BUO 0026      78                N/A     2/ 8   2/ 8
OFFSHORE WE BUOY 0011      78                N/A     2/ 8   2/ 8
64NM E OF VA BCH 0050   76 78  310/  2/  4 1018.4S   3/ 9   2/ 9
DUCK PIER NC     0000   75 79  190/  3/  5 1017.5S
44100 DUCK FRF   0024      78                N/A     2/ 8
44056 DUCK FRF   0011      78                N/A     2/ 8
OREGON INLET NC  0000   75 80  150/  5/  7 1018.1S
HATTERAS NC      0000   80 80  160/ 11/ 15 1017.7F
DIAMOND SHLS NC  0050   81 84  160/ 17/ 19 1018.1R   4/ 8   2/ 8


USA.gov is the U.S. government's official web portal to all federal, state and local government web resources and services.